Moose, Wyoming, United States (83012)
Lat: 43.66N, Lon: 110.72W
Wx Zone: WYZ013
Local Info
Past Weather Observations for Sunday, August 24, 2014

NOTE: This archive is for the closest National Weather Service station to Moose. Information may differ from the station used for current weather conditions.

Click here for Long-term Archive

Time Weather Temperature Dewpoint Humidity Pressure Winds Precip Visibility
23:55
Clear
39°F / 4°C 39°F / 4°C 100% 30.15 in
(1021 mb)
NE 4.6 mph
(NE 7 kph)
- 10SM
23:35
Partly Cloudy
43°F / 6°C 43°F / 6°C 100% 30.15 in
(1021 mb)
N 5.8 mph
(N 9 kph)
- 6SM
23:15
Clear
43°F / 6°C 43°F / 6°C 100% 30.18 in
(1022 mb)
Calm - 1 1/4SM
22:55
Clear
43°F / 6°C 43°F / 6°C 100% 30.15 in
(1021 mb)
Calm - 10SM
22:35
Partly Cloudy
45°F / 7°C 45°F / 7°C 100% 30.15 in
(1021 mb)
Calm - 10SM
22:15
Partly Cloudy
45°F / 7°C 43°F / 6°C 93% 30.15 in
(1021 mb)
E 3.5 mph
(E 6 kph)
- 10SM
21:55
Partly Cloudy
46°F / 8°C 45°F / 7°C 93% 30.15 in
(1021 mb)
Calm - 10SM
21:35
Partly Cloudy
46°F / 8°C 45°F / 7°C 93% 30.15 in
(1021 mb)
NW 4.6 mph
(NW 7 kph)
- 10SM
21:15
Mostly Cloudy
48°F / 9°C 46°F / 8°C 94% 30.15 in
(1021 mb)
Calm - 10SM
20:55
Overcast
48°F / 9°C 46°F / 8°C 94% 30.15 in
(1021 mb)
Calm 0.01 in
(0.25 mm)
10SM
20:35
Overcast
48°F / 9°C 46°F / 8°C 94% 30.15 in
(1021 mb)
Calm 0.01 in
(0.25 mm)
10SM
20:15
Overcast
48°F / 9°C 46°F / 8°C 94% 30.15 in
(1021 mb)
SSE 5.8 mph
(SSE 9 kph)
0.01 in
(0.25 mm)
10SM
19:55
Overcast
50°F / 10°C 43°F / 6°C 76% 30.15 in
(1021 mb)
SSE 8.1 mph
(SSE 13 kph)
- 10SM
18:55
Fair
55°F / 13°C 45°F / 7°C 67% 30.12 in
(1020 mb)
Calm - 10SM
17:51
Fair
57°F / 14°C 43°F / 6°C 59% 30.12 in
(1020 mb)
Variable 6.9 mph
(Variable 11 kph)
- 10SM
16:51
Fair
59°F / 15°C 39°F / 4°C 48% 30.12 in
(1020 mb)
Variable 6.9 mph
(Variable 11 kph)
- 10SM
15:55
Fair
57°F / 14°C 41°F / 5°C 55% 30.12 in
(1020 mb)
S 9.2 mph
(S 15 kph)
- 10SM
14:55
Fair
57°F / 14°C 41°F / 5°C 55% 30.12 in
(1020 mb)
Variable 6.9 mph
(Variable 11 kph)
- 10SM
13:51
Fair
57°F / 14°C 39°F / 4°C 51% 30.12 in
(1020 mb)
S 5.8 mph
(S 9 kph)
- 10SM
12:51
Mostly Cloudy
54°F / 12°C 39°F / 4°C 58% 30.12 in
(1020 mb)
SSE 6.9 mph
(SSE 11 kph)
- 10SM
10:51
Partly Cloudy
55°F / 13°C 39°F / 4°C 55% 30.12 in
(1020 mb)
S 15 mph
(S 24 kph)
- 10SM
09:51
Partly Cloudy
55°F / 13°C 39°F / 4°C 55% 30.12 in
(1020 mb)
Calm - 10SM
08:51
Partly Cloudy
52°F / 11°C 39°F / 4°C 62% 30.12 in
(1020 mb)
SSE 6.9 mph
(SSE 11 kph)
- 10SM
07:12
Clear
N/A N/A N/A 30.12 in
(1020 mb)
Calm - 10SM
06:35
Clear
45°F / 7°C 43°F / 6°C 93% 30.12 in
(1020 mb)
Calm - 10SM
06:15
Partly Cloudy
43°F / 6°C 41°F / 5°C 93% 30.12 in
(1020 mb)
Calm - 10SM
05:55
Overcast
43°F / 6°C 41°F / 5°C 93% 30.12 in
(1020 mb)
Calm - 10SM
05:35
Overcast
43°F / 6°C 43°F / 6°C 100% 30.12 in
(1020 mb)
Calm - 10SM
05:15
Overcast
43°F / 6°C 43°F / 6°C 100% 30.12 in
(1020 mb)
Calm - 10SM
04:55
Overcast
43°F / 6°C 43°F / 6°C 100% 30.12 in
(1020 mb)
Calm - 10SM
04:35
Overcast
43°F / 6°C 43°F / 6°C 100% 30.12 in
(1020 mb)
Calm - 10SM
04:15
Mostly Cloudy
45°F / 7°C 43°F / 6°C 93% 30.09 in
(1019 mb)
SSE 5.8 mph
(SSE 9 kph)
- 10SM
03:55
Mostly Cloudy
43°F / 6°C 41°F / 5°C 93% 30.12 in
(1020 mb)
SSE 4.6 mph
(SSE 7 kph)
- 10SM
03:35
Overcast
45°F / 7°C 43°F / 6°C 93% 30.12 in
(1020 mb)
Calm - 10SM
03:15
Overcast
43°F / 6°C 43°F / 6°C 100% 30.12 in
(1020 mb)
NNE 4.6 mph
(NNE 7 kph)
- 10SM
02:55
Mostly Cloudy
45°F / 7°C 43°F / 6°C 93% 30.12 in
(1020 mb)
Calm - 10SM
02:35
Mostly Cloudy
43°F / 6°C 43°F / 6°C 100% 30.12 in
(1020 mb)
Calm - 10SM
02:15
Overcast
45°F / 7°C 45°F / 7°C 100% 30.09 in
(1019 mb)
Calm - 10SM
01:55
Overcast
45°F / 7°C 43°F / 6°C 93% 30.12 in
(1020 mb)
Calm - 10SM
01:35
Overcast
45°F / 7°C 45°F / 7°C 100% 30.12 in
(1020 mb)
Calm - 10SM
01:15
Overcast
45°F / 7°C 45°F / 7°C 100% 30.12 in
(1020 mb)
Calm - 10SM
00:55
Overcast
45°F / 7°C 45°F / 7°C 100% 30.12 in
(1020 mb)
Calm - 10SM
00:35
Overcast
45°F / 7°C 45°F / 7°C 100% 30.12 in
(1020 mb)
NW 3.5 mph
(NW 6 kph)
- 10SM
00:15
Overcast
46°F / 8°C 45°F / 7°C 93% 30.12 in
(1020 mb)
SSW 4.6 mph
(SSW 7 kph)
- 10SM
Time Weather Temperature Dewpoint Humidity Pressure Winds Precip Visibility


Weather for websites

WeatherForYou.com, LLC is not responsible for any damages or problems caused by this service. Current weather conditions are obtained from the closest station including government and personal stations which may have varying degrees of accuracy. Weather forecasts are derived from the NOAA NDFD. Like all things, this site belongs to Jesus Christ... He just trusts me to maintain it. If you have any questions or comments email webmaster@weatherforyou.com

Copyright © 2014, WeatherForYou.com LLC. All rights reserved.